{"data":{"norad_id":68926,"intl_designator":"2026-098H","name":"KUIPER-00410","alt_names":[],"object_type":"PAYLOAD","status":"ACTIVE","operator":null,"country":"US","launch_date":"2026-04-30","launch_site_code":"FRGUI","launch_vehicle":null,"mission":null,"orbit_class":"UNKNOWN","rcs_meters":null,"size_class":null,"mass_kg":null,"dimensions":null,"purposes":[],"wikipedia_slug":null,"has_3d_model":false,"image_url":null,"decayed_at":null,"tle_current":{"epoch":"2026-09-19T15:07:55.065216Z","epoch_age_seconds":90674,"freshness":"FRESH","line1":"1 68926U 26098H   26262.63049844  .00000683  00000+0  11861-3 0  9998","line2":"2 68926  51.8990 358.0163 0000710 154.7105 205.3892 14.79928098 21506","mean_motion":14.79928098,"eccentricity":7.1e-5,"inclination_deg":51.899,"raan_deg":358.0163,"arg_perigee_deg":154.7105,"mean_anomaly_deg":205.3892,"bstar":0.00011861,"rev_number":2150,"period_min":97.302024466326,"perigee_km":629.05355776163,"apogee_km":630.04864947234,"semimajor_km":7007.688103617,"source":"CELESTRAK","updated_at":"2026-09-20T09:00:24.554622Z"}}}